| time (UTC) | temp F | wind direction | speed MPH | gust MPH | rain 1hr in | rain 24hr in | rain mn in | humidity % | barometer mb |
| 20260505035405 | 66 | 221 | 5.0 | 7.0 | 0.00 | 0.00 | 0.00 | 58 | 1011.2 |
| 20260505034905 | 66 | 205 | 3.0 | 10.0 | 0.00 | 0.00 | 0.00 | 58 | 1010.9 |
| 20260505034404 | 67 | 225 | 2.0 | 6.0 | 0.00 | 0.00 | 0.00 | 57 | 1010.9 |
| 20260505033904 | 67 | 200 | 4.0 | 8.0 | 0.00 | 0.00 | 0.00 | 57 | 1010.9 |
| 20260505033404 | 67 | 216 | 3.0 | 9.0 | 0.00 | 0.00 | 0.00 | 57 | 1010.9 |
| 20260505032904 | 67 | 203 | 3.0 | 8.0 | 0.00 | 0.00 | 0.00 | 57 | 1010.8 |
| 20260505032405 | 67 | 213 | 2.0 | 8.0 | 0.00 | 0.00 | 0.00 | 56 | 1010.7 |
| 20260505031404 | 67 | 215 | 5.0 | 10.0 | 0.00 | 0.00 | 0.00 | 56 | 1010.7 |
| 20260505030904 | 68 | 212 | 5.0 | 8.0 | 0.00 | 0.00 | 0.00 | 56 | 1010.6 |
| 20260505025904 | 68 | 193 | 3.0 | 7.0 | 0.00 | 0.00 | 0.00 | 55 | 1010.6 |
| 20260505025404 | 68 | 206 | 5.0 | 9.0 | 0.00 | 0.00 | 0.00 | 54 | 1010.6 |
| 20260505022904 | 69 | 212 | 3.0 | 12.0 | 0.00 | 0.00 | 0.00 | 53 | 1010.3 |
| 20260505021905 | 69 | 197 | 3.0 | 8.0 | 0.00 | 0.00 | 0.00 | 53 | 1010.2 |
| 20260505021404 | 69 | 205 | 6.0 | 14.0 | 0.00 | 0.00 | 0.00 | 53 | 1010.2 |
| 20260505020404 | 70 | 223 | 5.0 | 8.0 | 0.00 | 0.00 | 0.00 | 53 | 1010.1 |
| 20260505015404 | 70 | 199 | 7.0 | 12.0 | 0.00 | 0.00 | 0.00 | 52 | 1010.0 |
| 20260505014905 | 70 | 195 | 6.0 | 10.0 | 0.00 | 0.00 | 0.00 | 52 | 1010.1 |
| 20260505013904 | 70 | 210 | 5.0 | 9.0 | 0.00 | 0.00 | 0.00 | 52 | 1009.9 |
| 20260505013405 | 70 | 199 | 6.0 | 8.0 | 0.00 | 0.00 | 0.00 | 52 | 1010.0 |
| 20260505012904 | 70 | 200 | 5.0 | 10.0 | 0.00 | 0.00 | 0.00 | 52 | 1010.0 |
| 20260505012405 | 70 | 203 | 5.0 | 9.0 | 0.00 | 0.00 | 0.00 | 52 | 1009.9 |
| 20260505011405 | 71 | 208 | 4.0 | 8.0 | 0.00 | 0.00 | 0.00 | 52 | 1009.9 |
| 20260505010905 | 71 | 206 | 5.0 | 13.0 | 0.00 | 0.00 | 0.00 | 51 | 1009.7 |
| 20260505010404 | 71 | 203 | 5.0 | 12.0 | 0.00 | 0.00 | 0.00 | 51 | 1009.8 |
| 20260505005904 | 71 | 176 | 5.0 | 8.0 | 0.00 | 0.00 | 0.00 | 51 | 1009.8 |
| 20260505005404 | 71 | 205 | 5.0 | 7.0 | 0.00 | 0.00 | 0.00 | 50 | 1009.8 |
| 20260505004904 | 72 | 205 | 4.0 | 7.0 | 0.00 | 0.00 | 0.00 | 50 | 1009.9 |
| 20260505004404 | 72 | 214 | 5.0 | 8.0 | 0.00 | 0.00 | 0.00 | 49 | 1009.9 |
| 20260505003905 | 72 | 208 | 5.0 | 9.0 | 0.00 | 0.00 | 0.00 | 47 | 1009.8 |
| 20260505003404 | 73 | 207 | 2.0 | 5.0 | 0.00 | 0.00 | 0.00 | 47 | 1009.9 |
| 20260505002904 | 73 | 221 | 4.0 | 10.0 | 0.00 | 0.00 | 0.00 | 46 | 1010.0 |
| 20260505002404 | 74 | 205 | 6.0 | 9.0 | 0.00 | 0.00 | 0.00 | 46 | 1010.0 |
| 20260505001404 | 74 | 223 | 5.0 | 12.0 | 0.00 | 0.00 | 0.00 | 46 | 1010.0 |
| 20260505000904 | 74 | 213 | 6.0 | 13.0 | 0.00 | 0.00 | 0.00 | 45 | 1009.9 |
| 20260505000405 | 74 | 217 | 3.0 | 12.0 | 0.00 | 0.00 | 0.00 | 46 | 1010.0 |
| 20260504235904 | 75 | 220 | 5.0 | 16.0 | 0.00 | 0.00 | 0.00 | 45 | 1009.9 |
| 20260504235404 | 75 | 225 | 3.0 | 14.0 | 0.00 | 0.00 | 0.00 | 46 | 1010.1 |
| 20260504234904 | 75 | 225 | 6.0 | 12.0 | 0.00 | 0.00 | 0.00 | 45 | 1009.9 |
| 20260504234405 | 75 | 227 | 6.0 | 9.0 | 0.00 | 0.00 | 0.00 | 46 | 1010.0 |
| 20260504233904 | 75 | 210 | 7.0 | 14.0 | 0.00 | 0.00 | 0.00 | 46 | 1010.0 |
| 20260504233404 | 76 | 214 | 5.0 | 17.0 | 0.00 | 0.00 | 0.00 | 45 | 1010.0 |
| 20260504231904 | 76 | 237 | 3.0 | 8.0 | 0.00 | 0.00 | 0.00 | 44 | 1010.0 |
| 20260504230405 | 77 | 221 | 7.0 | 13.0 | 0.00 | 0.00 | 0.00 | 42 | 1010.2 |
| 20260504225904 | 77 | 209 | 5.0 | 12.0 | 0.00 | 0.00 | 0.00 | 43 | 1010.1 |
| 20260504225404 | 77 | 258 | 6.0 | 13.0 | 0.00 | 0.00 | 0.00 | 43 | 1009.9 |
| 20260504224904 | 77 | 229 | 5.0 | 14.0 | 0.00 | 0.00 | 0.00 | 43 | 1010.0 |
| 20260504224404 | 77 | 217 | 7.0 | 17.0 | 0.00 | 0.00 | 0.00 | 42 | 1010.0 |
| 20260504223404 | 77 | 205 | 7.0 | 16.0 | 0.00 | 0.00 | 0.00 | 43 | 1010.0 |
| 20260504222904 | 78 | 242 | 8.0 | 16.0 | 0.00 | 0.00 | 0.00 | 44 | 1010.1 |
| 20260504222404 | 78 | 189 | 9.0 | 14.0 | 0.00 | 0.00 | 0.00 | 43 | 1010.1 |
| 20260504221904 | 78 | 224 | 8.0 | 17.0 | 0.00 | 0.00 | 0.00 | 42 | 1010.0 |
| 20260504220904 | 78 | 233 | 8.0 | 20.0 | 0.00 | 0.00 | 0.00 | 42 | 1010.1 |
| 20260504220404 | 78 | 223 | 9.0 | 16.0 | 0.00 | 0.00 | 0.00 | 42 | 1010.1 |
| 20260504215905 | 78 | 227 | 5.0 | 16.0 | 0.00 | 0.00 | 0.00 | 42 | 1010.1 |
| 20260504215404 | 78 | 229 | 9.0 | 16.0 | 0.00 | 0.00 | 0.00 | 40 | 1010.1 |
| 20260504214404 | 78 | 222 | 9.0 | 16.0 | 0.00 | 0.00 | 0.00 | 41 | 1010.0 |
| 20260504213405 | 78 | 216 | 9.0 | 16.0 | 0.00 | 0.00 | 0.00 | 42 | 1009.9 |
| 20260504212904 | 79 | 214 | 9.0 | 16.0 | 0.00 | 0.00 | 0.00 | 42 | 1009.9 |
| 20260504212404 | 79 | 211 | 5.0 | 15.0 | 0.00 | 0.00 | 0.00 | 42 | 1009.9 |
| 20260504211904 | 79 | 197 | 7.0 | 16.0 | 0.00 | 0.00 | 0.00 | 42 | 1010.1 |
| 20260504211404 | 79 | 237 | 5.0 | 15.0 | 0.00 | 0.00 | 0.00 | 43 | 1010.1 |
| 20260504210904 | 79 | 200 | 10.0 | 18.0 | 0.00 | 0.00 | 0.00 | 42 | 1010.2 |
| 20260504210405 | 79 | 206 | 7.0 | 15.0 | 0.00 | 0.00 | 0.00 | 43 | 1010.3 |
| 20260504205904 | 79 | 230 | 6.0 | 14.0 | 0.00 | 0.00 | 0.00 | 44 | 1010.1 |
| 20260504205404 | 79 | 247 | 6.0 | 20.0 | 0.00 | 0.00 | 0.00 | 43 | 1010.1 |
| 20260504204904 | 79 | 219 | 10.0 | 18.0 | 0.00 | 0.00 | 0.00 | 42 | 1010.1 |
| 20260504204404 | 80 | 229 | 5.0 | 12.0 | 0.00 | 0.00 | 0.00 | 44 | 1010.1 |
| 20260504203904 | 79 | 246 | 9.0 | 17.0 | 0.00 | 0.00 | 0.00 | 43 | 1010.3 |
| 20260504203404 | 79 | 250 | 7.0 | 15.0 | 0.00 | 0.00 | 0.00 | 42 | 1010.2 |
| 20260504202904 | 80 | 208 | 9.0 | 20.0 | 0.00 | 0.00 | 0.00 | 43 | 1010.3 |
| 20260504202404 | 79 | 221 | 5.0 | 10.0 | 0.00 | 0.00 | 0.00 | 44 | 1010.4 |
| 20260504201904 | 79 | 215 | 10.0 | 18.0 | 0.00 | 0.00 | 0.00 | 41 | 1010.5 |
| 20260504201404 | 79 | 224 | 9.0 | 16.0 | 0.00 | 0.00 | 0.00 | 43 | 1010.6 |
| 20260504200905 | 80 | 196 | 5.0 | 12.0 | 0.00 | 0.00 | 0.00 | 44 | 1010.8 |
| 20260504200404 | 79 | 224 | 8.0 | 17.0 | 0.00 | 0.00 | 0.00 | 44 | 1010.6 |
| 20260504195904 | 79 | 235 | 7.0 | 13.0 | 0.00 | 0.00 | 0.00 | 44 | 1010.9 |
| 20260504195404 | 79 | 271 | 6.0 | 18.0 | 0.00 | 0.00 | 0.00 | 43 | 1011.0 |
| 20260504194904 | 79 | 228 | 8.0 | 18.0 | 0.00 | 0.00 | 0.00 | 44 | 1011.2 |
| 20260504193904 | 79 | 255 | 9.0 | 18.0 | 0.00 | 0.00 | 0.00 | 41 | 1011.3 |
| 20260504193404 | 79 | 212 | 10.0 | 15.0 | 0.00 | 0.00 | 0.00 | 44 | 1011.4 |
| 20260504192904 | 79 | 243 | 8.0 | 17.0 | 0.00 | 0.00 | 0.00 | 43 | 1011.6 |
| 20260504191904 | 79 | 220 | 7.0 | 17.0 | 0.00 | 0.00 | 0.00 | 43 | 1011.8 |
| 20260504191404 | 79 | 218 | 5.0 | 16.0 | 0.00 | 0.00 | 0.00 | 44 | 1011.9 |
| 20260504190904 | 79 | 197 | 7.0 | 20.0 | 0.00 | 0.00 | 0.00 | 48 | 1011.8 |
| 20260504190404 | 79 | 207 | 9.0 | 21.0 | 0.00 | 0.00 | 0.00 | 44 | 1011.8 |
| 20260504185904 | 78 | 205 | 6.0 | 15.0 | 0.00 | 0.00 | 0.00 | 44 | 1012.0 |
| 20260504184904 | 79 | 234 | 4.0 | 14.0 | 0.00 | 0.00 | 0.00 | 43 | 1012.1 |
| 20260504184405 | 79 | 241 | 4.0 | 10.0 | 0.00 | 0.00 | 0.00 | 44 | 1012.3 |
| 20260504183904 | 78 | 240 | 9.0 | 16.0 | 0.00 | 0.00 | 0.00 | 44 | 1012.1 |
| 20260504183404 | 79 | 248 | 4.0 | 15.0 | 0.00 | 0.00 | 0.00 | 45 | 1012.2 |
| 20260504182904 | 79 | 286 | 4.0 | 12.0 | 0.00 | 0.00 | 0.00 | 46 | 1012.2 |
| 20260504182404 | 78 | 236 | 7.0 | 20.0 | 0.00 | 0.00 | 0.00 | 45 | 1012.2 |
| 20260504181404 | 78 | 212 | 9.0 | 20.0 | 0.00 | 0.00 | 0.00 | 44 | 1012.4 |
| 20260504180905 | 78 | 244 | 7.0 | 26.0 | 0.00 | 0.00 | 0.00 | 44 | 1012.4 |
| 20260504175904 | 77 | 244 | 7.0 | 14.0 | 0.00 | 0.00 | 0.00 | 43 | 1012.3 |
| 20260504175404 | 78 | 245 | 6.0 | 16.0 | 0.00 | 0.00 | 0.00 | 45 | 1012.4 |
| 20260504174904 | 78 | 232 | 5.0 | 15.0 | 0.00 | 0.00 | 0.00 | 45 | 1012.5 |
| 20260504174404 | 77 | 255 | 9.0 | 18.0 | 0.00 | 0.00 | 0.00 | 43 | 1012.7 |
| 20260504173904 | 77 | 217 | 9.0 | 18.0 | 0.00 | 0.00 | 0.00 | 43 | 1012.6 |
| 20260504173404 | 78 | 221 | 9.0 | 16.0 | 0.00 | 0.00 | 0.00 | 45 | 1012.7 |
| 20260504172905 | 77 | 218 | 9.0 | 20.0 | 0.00 | 0.00 | 0.00 | 47 | 1012.7 |
| 20260504172403 | 78 | 275 | 7.0 | 14.0 | 0.00 | 0.00 | 0.00 | 47 | 1012.9 |
| 20260504171904 | 78 | 275 | 4.0 | 10.0 | 0.00 | 0.00 | 0.00 | 48 | 1012.9 |
| 20260504171404 | 77 | 278 | 4.0 | 15.0 | 0.00 | 0.00 | 0.00 | 48 | 1012.9 |
| 20260504170904 | 77 | 240 | 6.0 | 13.0 | 0.00 | 0.00 | 0.00 | 47 | 1013.1 |
| 20260504170404 | 76 | 265 | 9.0 | 18.0 | 0.00 | 0.00 | 0.00 | 46 | 1013.1 |
| 20260504160404 | 74 | 216 | 5.0 | 12.0 | 0.00 | 0.00 | 0.00 | 53 | 1013.9 |
| 20260504150404 | 72 | 251 | 5.0 | 12.0 | 0.00 | 0.00 | 0.00 | 57 | 1014.2 |
| 20260504140904 | 67 | 231 | 3.0 | 12.0 | 0.00 | 0.00 | 0.00 | 63 | 1014.1 |
| 20260504140404 | 67 | 223 | 4.0 | 9.0 | 0.00 | 0.00 | 0.00 | 62 | 1014.1 |
| 20260504130404 | 64 | 207 | 5.0 | 12.0 | 0.00 | 0.00 | 0.00 | 66 | 1014.5 |
| 20260504110404 | 59 | 223 | 3.0 | 12.0 | 0.00 | 0.00 | 0.00 | 68 | 1013.6 |
| 20260504100404 | 59 | 223 | 5.0 | 13.0 | 0.00 | 0.00 | 0.00 | 66 | 1013.8 |
| 20260504081904 | 60 | 207 | 5.0 | 10.0 | 0.00 | 0.00 | 0.00 | 61 | 1014.1 |
| 20260504081404 | 60 | 210 | 4.0 | 10.0 | 0.00 | 0.00 | 0.00 | 61 | 1014.1 |
| 20260504080904 | 60 | 207 | 6.0 | 12.0 | 0.00 | 0.00 | 0.00 | 61 | 1014.1 |
| 20260504080404 | 60 | 210 | 5.0 | 10.0 | 0.00 | 0.00 | 0.00 | 60 | 1014.1 |
| 20260504070403 | 61 | 216 | 3.0 | 9.0 | 0.00 | 0.00 | 0.00 | 58 | 1014.6 |
| 20260504050404 | 60 | 194 | 3.0 | 6.0 | 0.00 | 0.00 | 0.00 | 56 | 1015.5 |
| 20260504045405 | 60 | 198 | 4.0 | 8.0 | 0.00 | 0.00 | 0.00 | 56 | 1015.6 |
| 20260504044904 | 60 | 210 | 3.0 | 8.0 | 0.00 | 0.00 | 0.00 | 56 | 1015.6 |
| 20260504044404 | 61 | 203 | 2.0 | 7.0 | 0.00 | 0.00 | 0.00 | 55 | 1015.7 |
| 20260504043404 | 61 | 218 | 3.0 | 9.0 | 0.00 | 0.00 | 0.00 | 55 | 1015.7 |
| 20260504042904 | 61 | 208 | 3.0 | 7.0 | 0.00 | 0.00 | 0.00 | 54 | 1015.7 |
| 20260504042404 | 61 | 210 | 5.0 | 8.0 | 0.00 | 0.00 | 0.00 | 54 | 1015.7 |
| 20260504041903 | 61 | 214 | 3.0 | 6.0 | 0.00 | 0.00 | 0.00 | 54 | 1015.8 |
| 20260504041403 | 61 | 218 | 3.0 | 7.0 | 0.00 | 0.00 | 0.00 | 54 | 1015.7 |
| 20260504040904 | 61 | 203 | 5.0 | 8.0 | 0.00 | 0.00 | 0.00 | 54 | 1015.8 |
| 20260504040404 | 61 | 215 | 5.0 | 10.0 | 0.00 | 0.00 | 0.00 | 53 | 1015.8 |
| 20260504035904 | 61 | 217 | 6.0 | 12.0 | 0.00 | 0.00 | 0.00 | 53 | 1015.9 |